Wind_Speed
1 6 6 5 4 1 2 3 4 3 13 17 15 14 14 12 9 8 7 3 3 8 9 8 12 11 8 6 4 3 3 2 2 2 2 1 1 2 2 2 2 2 3 3 3 4 6 7 7 8 8 8 9 10 11 12 12 12 12 11 10 10 10 9 9 9 9 9 8 9 9 10 10 10 10 10 10 10 10 10 10 10 11 11 12 13
2 6 4 4 3 3 4 5 1 10 17 16 14 14 12 10 9 7 6 3 2 5 6 7 12 10 7 5 3 2 3 2 1 1 1 1 1 1 0 1 1 1 1 1 1 3 4 6 7 7 7 7 7 9 10 12 12 12 12 12 11 10 10 10 9 9 9 8 7 7 7 7 7 7 7 7 8 8 8 8 9 9 10 11 11 12
6 5 6 7 4 2 3 1 11 18 16 14 12 11 10 9 9 9 8 6 4 5 6 7 9 8 5 4 2 1 1 0 1 1 1 0 0 1 1 1 1 1 1 1 0 2 4 5 6 5 5 5 6 7 9 10 11 11 11 11 10 10 9 9 8 8 7 7 7 6 6 6 5 5 6 6 6 6 6 7 8 8 9 10 10 11
6 3 7 5 4 2 6 8 16 17 12 11 10 8 8 6 7 5 6 9 8 7 9 9 8 5 3 2 1 1 0 1 1 2 1 2 2 2 1 2 2 2 2 1 0 2 3 4 3 3 2 3 4 4 6 7 9 9 9 9 8 8 8 7 7 6 6 5 5 5 4 4 4 4 4 4 4 5 6 6 7 8 9 9 10 11
8 6 5 1 4 7 14 12 13 13 9 9 8 8 9 7 9 9 8 12 13 10 8 8 6 3 1 1 2 2 1 2 2 3 4 4 3 2 2 3 4 3 2 2 1 1 2 2 2 2 1 0 1 1 3 5 6 7 6 6 6 6 5 5 5 5 5 4 4 3 3 3 3 3 3 3 5 6 7 7 8 9 10 10 10 11
9 8 4 3 6 8 12 9 5 7 10 8 4 4 13 15 15 16 14 11 10 6 2 3 4 3 2 3 4 3 3 4 4 4 6 5 5 4 3 4 4 4 3 3 2 2 2 3 4 4 4 3 2 1 1 3 3 4 3 3 3 3 3 3 3 4 4 3 3 3 3 3 4 4 4 5 8 9 9 10 10 11 11 12 12 13
7 8 4 7 8 7 10 9 4 2 10 9 3 2 13 20 18 16 12 6 6 5 2 2 2 2 3 4 4 3 4 6 4 6 7 6 5 5 5 5 5 5 4 4 4 4 5 5 6 6 5 4 3 2 1 1 1 1 1 2 2 2 3 4 4 4 4 4 5 5 5 5 5 5 5 8 9 10 11 13 13 13 14 14 15 15
6 9 8 8 8 6 8 6 5 4 6 7 2 4 10 16 17 14 8 6 7 5 3 1 2 1 4 3 2 2 4 7 7 10 9 7 6 6 7 7 6 6 5 4 5 5 6 7 7 7 6 5 5 4 3 2 3 4 3 4 4 4 5 5 6 6 5 5 6 6 6 6 6 7 9 10 11 12 14 16 16 17 17 17 18 18
5 8 10 6 6 7 3 2 4 4 9 6 6 7 5 6 9 9 7 8 7 5 4 3 6 1 5 2 2 2 4 9 12 13 11 8 8 7 7 7 6 6 6 5 6 6 8 9 8 8 7 7 7 6 6 5 6 6 6 6 6 7 7 8 8 8 7 7 8 8 8 7 8 10 12 13 15 15 17 18 19 20 20 20 21 21
3 5 6 5 6 6 4 3 5 4 10 9 10 9 5 4 5 6 8 8 5 3 3 4 7 1 4 4 4 4 5 11 12 10 8 7 8 8 7 8 7 6 6 7 7 8 9 9 9 9 9 9 9 9 8 8 8 9 9 9 9 9 10 10 10 10 10 11 11 11 11 12 12 13 14 16 17 18 18 19 21 21 21 23 24 24
3 1 3 4 5 2 3 5 3 6 14 14 12 10 8 7 7 6 6 5 5 3 3 4 6 3 2 4 6 5 3 5 6 6 5 6 8 8 8 7 7 7 7 7 8 9 10 10 10 10 12 12 11 11 11 11 11 11 12 12 12 12 12 13 12 13 13 13 14 14 15 16 16 16 18 18 19 19 19 20 22 22 23 25 27 27
7 5 2 3 4 4 2 10 9 8 11 9 8 8 7 7 7 5 4 2 5 4 3 3 5 3 3 2 3 4 2 1 3 4 5 7 9 9 8 8 8 9 7 6 6 8 9 9 10 12 13 14 13 14 14 13 13 13 13 14 14 15 14 14 15 15 16 16 17 18 18 19 19 19 20 21 21 22 22 23 24 24 24 26 27 27
7 6 6 4 3 7 5 7 7 4 4 4 6 7 7 7 5 4 3 3 3 2 3 2 3 2 4 2 2 5 5 4 5 4 4 7 11 12 12 12 9 7 6 5 6 8 9 9 10 12 13 15 16 16 16 15 14 14 15 15 17 17 16 16 17 18 19 20 20 20 21 21 22 22 22 23 24 24 24 24 24 25 25 25 25 26
3 3 10 9 3 8 8 3 6 4 3 3 4 4 5 7 6 5 3 1 1 2 3 1 2 2 3 2 3 4 2 2 4 5 4 4 7 8 8 8 6 4 5 5 6 8 9 10 12 13 15 16 18 18 17 15 15 15 16 16 18 19 18 18 19 20 21 22 23 22 23 23 24 24 24 25 25 26 26 26 26 27 27 27 27 29
4 4 8 8 4 8 8 4 2 2 3 2 2 1 3 3 2 5 4 1 2 3 3 1 1 2 1 1 2 2 2 2 3 4 4 3 5 4 2 2 3 4 5 5 6 8 10 12 13 15 18 21 21 19 18 16 16 16 17 18 19 20 20 20 20 21 22 23 24 24 24 25 25 26 26 26 26 27 27 27 28 29 29 30 31 32
4 3 3 3 3 6 6 4 3 2 2 2 2 2 1 1 1 3 2 2 2 2 2 1 2 2 1 0 1 2 3 4 3 2 4 4 4 4 4 4 4 5 6 6 6 8 11 14 17 20 23 24 23 21 20 19 18 18 19 20 21 22 22 22 23 24 24 24 24 25 26 26 27 27 28 28 28 28 28 28 29 30 31 32 33 33
3 3 3 3 2 3 5 5 3 1 0 1 0 1 2 2 1 4 3 2 1 2 3 1 3 2 1 1 1 2 4 3 2 2 3 4 3 4 5 5 6 6 7 6 7 9 11 14 18 22 25 25 25 24 22 21 20 20 21 22 23 24 25 25 26 27 27 27 28 28 29 29 29 30 30 31 31 31 31 31 32 33 33 34 35 36
2 4 2 3 2 3 4 5 4 2 1 1 2 4 3 1 1 1 2 2 1 2 2 0 3 2 2 1 2 1 1 1 1 2 3 4 4 6 6 6 7 7 7 7 8 10 12 12 16 22 25 27 27 26 25 24 23 23 23 24 25 26 27 28 29 30 30 31 32 32 33 33 33 34 34 34 35 35 35 35 36 35 36 36 36 37
1 4 2 2 1 1 2 2 1 4 6 4 4 4 2 1 1 1 1 2 2 2 2 1 2 2 2 1 1 1 3 3 0 2 4 6 6 7 7 6 7 7 6 7 8 9 11 13 17 23 27 28 28 28 27 26 26 26 27 27 29 29 30 31 31 32 33 34 36 37 37 37 38 38 38 38 38 38 38 39 38 37 37 36 36 36
2 2 3 2 3 2 0 2 1 3 5 4 4 2 1 2 1 1 1 1 1 2 2 1 1 1 2 1 2 3 3 3 2 2 3 5 6 6 6 6 6 6 6 7 7 8 11 13 15 20 24 26 27 27 28 28 28 29 30 31 32 32 33 34 35 35 36 37 38 38 39 39 39 39 39 40 40 39 39 39 38 38 37 36 34 34
3 1 3 1 2 2 1 4 4 3 3 1 1 1 2 2 1 1 2 2 1 1 2 2 2 0 1 1 2 3 4 3 3 4 4 4 4 5 6 6 6 6 7 7 7 8 11 12 14 16 20 23 25 26 27 28 29 30 30 31 32 32 33 34 34 33 33 33 33 34 34 35 35 35 36 37 38 38 38 38 38 37 35 33 33 33
3 2 3 2 2 3 3 3 2 3 3 2 2 2 2 1 1 1 3 1 1 1 0 1 2 1 1 1 3 3 3 3 3 4 5 5 5 5 5 5 6 6 7 7 8 9 11 12 13 14 17 20 22 24 26 26 27 28 29 29 29 29 28 27 26 26 26 27 27 28 29 30 31 32 33 34 34 35 35 35 34 32 31 31 31 31
2 2 5 3 2 2 1 1 1 2 3 3 2 1 1 0 1 1 1 3 2 1 1 1 1 2 1 2 2 2 3 4 4 4 6 6 6 5 5 5 5 6 7 7 8 10 10 12 13 13 15 17 19 22 25 25 25 26 25 24 23 22 21 20 20 21 22 23 25 26 27 28 29 29 30 30 30 30 30 29 29 28 28 30 30 30
1 1 3 2 0 1 1 2 1 2 3 3 1 1 0 1 1 2 1 2 2 1 1 1 1 2 2 2 1 2 3 5 5 4 6 7 6 6 6 6 5 6 7 7 8 9 10 11 12 13 14 15 17 19 22 22 22 22 20 18 18 18 17 17 18 19 20 22 24 26 27 28 28 27 26 26 26 26 26 26 27 27 28 29 29 29
1 0 1 2 2 2 2 3 3 2 2 2 0 1 1 1 2 1 1 1 1 1 0 0 1 2 2 2 1 2 3 5 5 3 4 5 6 6 6 5 5 6 6 7 7 8 9 10 10 11 12 13 14 16 18 19 19 18 16 15 15 16 16 16 17 19 21 23 25 26 27 27 25 24 24 24 25 25 26 26 26 27 28 28 28 27
0 1 1 1 2 2 2 2 1 1 2 0 0 0 1 1 1 1 1 1 1 2 1 1 1 2 1 2 3 4 3 4 4 3 3 5 6 6 6 5 5 5 6 7 7 7 8 9 9 10 11 12 13 15 17 18 16 15 14 13 14 15 16 17 18 19 21 23 25 26 26 25 24 24 24 25 25 26 26 26 26 26 27 26 26 26
3 3 2 0 0 2 3 2 2 2 2 2 2 3 2 1 1 2 1 1 1 4 3 3 1 1 1 3 3 4 4 4 5 5 4 4 5 5 5 6 6 5 6 7 7 7 8 9 9 10 11 11 13 14 15 14 13 13 14 14 14 15 16 17 19 20 22 24 25 25 25 24 24 25 25 25 25 25 25 25 25 26 26 26 26 26
2 2 2 1 1 3 3 3 3 3 1 2 2 3 3 2 1 2 2 0 3 4 1 1 2 2 2 1 3 4 4 5 6 5 5 4 4 5 5 6 7 7 6 6 6 7 7 8 9 10 10 11 13 13 13 12 13 13 15 15 15 16 17 19 20 21 23 23 24 25 25 25 25 25 25 25 24 24 24 25 25 26 26 26 26 26
1 2 1 0 1 2 3 3 3 2 1 0 1 3 3 4 4 4 2 2 4 3 1 2 3 5 5 3 4 4 4 6 6 5 5 5 6 6 6 6 7 7 6 7 7 7 6 7 9 10 10 12 14 13 12 13 14 15 16 16 16 17 18 19 21 22 23 23 24 25 25 25 25 25 25 24 24 24 25 25 26 26 26 26 26 26
1 2 2 1 1 3 3 2 1 1 1 1 3 4 4 4 5 5 3 1 3 4 3 0 4 9 9 7 8 5 2 4 5 5 5 6 6 6 5 6 7 7 7 7 7 7 7 8 9 10 12 14 14 13 14 15 16 17 17 18 18 18 20 21 22 23 23 24 25 25 25 25 25 25 24 24 24 25 25 25 25 26 26 26 26 25
1 1 2 2 1 2 3 2 2 1 0 2 4 4 4 3 4 5 3 1 2 5 4 2 5 9 7 5 7 6 2 2 5 6 6 6 5 5 5 6 7 7 8 7 7 7 7 8 10 10 13 16 15 14 15 16 17 17 18 18 19 20 21 22 22 22 23 25 25 25 25 24 24 24 24 24 24 24 25 25 24 25 25 24 23 22
2 1 1 1 1 2 2 3 2 2 1 2 5 6 7 6 3 4 4 4 5 3 2 3 3 4 2 1 4 5 3 4 6 6 7 6 5 5 6 7 8 8 8 7 7 7 7 8 9 10 12 16 17 16 16 16 16 17 18 19 20 21 22 22 22 22 23 24 25 24 23 23 22 23 24 24 24 24 24 24 23 23 22 20 20 20
2 1 1 1 0 1 2 3 2 3 1 1 2 3 8 8 5 3 3 6 8 6 3 3 2 1 1 0 3 4 4 5 6 4 4 5 5 5 6 8 8 8 8 8 7 7 8 9 10 12 14 17 17 16 15 15 16 17 18 19 20 21 21 21 22 22 23 24 24 23 22 22 22 22 23 23 23 22 22 22 20 19 18 19 20 20
2 1 1 1 0 1 1 2 2 1 0 1 2 2 4 4 6 7 5 7 10 9 5 4 3 2 3 4 4 6 7 6 5 4 5 5 6 6 7 7 7 7 7 7 7 8 9 11 13 17 19 19 17 15 15 16 17 18 19 19 20 20 21 21 22 23 23 23 22 21 21 21 20 21 21 21 20 20 19 18 17 17 19 20 21 22
1 2 1 0 1 0 1 1 0 0 1 1 1 1 1 2 4 7 9 7 10 12 10 9 9 8 7 6 6 8 8 6 6 7 8 8 6 7 8 7 7 7 7 7 7 8 10 12 14 17 19 20 17 15 16 17 18 19 19 19 19 20 20 21 22 22 22 21 21 20 19 19 18 18 18 18 17 17 16 16 17 19 21 21 21 22
1 2 1 1 1 1 0 1 0 1 1 1 0 2 1 2 1 4 8 7 10 12 11 10 11 9 7 7 7 6 5 6 6 7 9 9 7 8 8 7 7 7 7 8 9 11 14 16 17 18 19 19 17 16 17 18 17 18 19 18 18 19 19 20 20 20 20 19 18 17 17 17 17 16 16 16 15 15 15 17 19 21 22 22 22 22
1 1 1 1 1 1 0 1 3 3 1 2 1 2 3 2 1 1 3 2 5 8 10 9 9 8 6 7 6 3 3 5 5 4 5 6 6 7 8 9 9 9 11 14 17 18 21 22 22 21 19 18 17 17 17 17 17 17 18 17 18 18 18 18 19 18 17 16 15 15 16 16 16 16 16 15 15 16 17 19 21 22 22 22 23 22
1 1 1 0 1 1 0 1 2 1 0 1 1 2 1 1 0 1 2 1 2 5 8 9 7 6 6 5 3 3 3 6 6 2 1 2 3 4 6 10 13 15 17 19 21 22 23 23 21 20 18 17 18 17 16 15 16 16 16 17 16 17 17 17 17 15 14 13 14 16 17 17 16 16 15 14 15 17 20 21 22 22 22 21 22 23
2 1 0 1 1 1 1 0 1 1 0 0 2 2 1 0 0 1 2 1 2 4 7 8 6 6 5 3 1 1 3 6 7 3 2 0 2 2 4 9 14 17 19 21 21 22 22 22 20 19 17 17 17 17 15 15 15 14 15 16 15 16 16 16 15 13 13 15 16 18 18 17 17 16 16 17 18 19 22 24 23 22 23 22 22 23
2 2 1 1 1 1 1 0 2 2 1 0 1 2 2 1 1 2 3 0 2 3 6 7 6 6 4 2 1 1 3 7 8 5 1 1 5 6 8 11 13 16 18 20 21 21 20 20 19 18 17 16 17 16 15 15 15 14 15 15 15 16 16 15 14 14 15 17 18 18 18 16 17 18 20 21 22 23 24 25 23 24 26 26 24 23
1 2 2 1 1 1 1 1 2 2 1 1 2 3 3 2 1 2 2 1 2 2 5 6 6 6 3 2 3 3 5 7 9 8 5 5 9 11 13 15 16 17 19 20 20 20 20 20 19 17 17 17 16 16 15 15 15 15 15 15 15 16 15 14 14 15 16 17 17 17 17 17 19 22 23 24 25 26 27 26 26 29 30 27 24 23
1 1 1 1 1 1 0 2 2 2 1 3 2 2 2 2 1 0 1 1 1 1 3 5 6 5 4 4 5 6 7 8 8 8 8 9 11 12 14 15 16 17 18 19 20 18 18 19 19 18 18 17 16 16 15 15 15 15 15 15 15 15 15 15 15 16 16 17 17 17 18 20 22 23 25 26 26 27 29 29 30 32 31 27 25 25
2 1 0 1 2 1 1 1 1 2 2 7 7 3 2 3 0 1 0 1 0 1 2 4 5 4 4 5 7 7 9 9 9 10 11 11 11 12 14 14 13 15 17 18 19 19 18 18 19 20 19 17 17 16 15 14 15 15 15 16 16 15 15 15 16 16 16 16 16 17 20 22 23 25 26 27 27 28 30 32 32 33 31 28 26 26
3 2 1 1 3 2 0 1 1 2 3 9 7 4 4 4 1 2 1 2 1 2 2 3 5 5 5 6 8 8 8 9 10 11 11 10 10 10 12 13 12 14 15 17 18 19 19 18 19 20 20 18 17 17 16 14 14 15 16 16 16 16 15 16 16 15 15 16 17 20 22 23 24 26 27 28 29 29 31 32 33 33 30 27 24 24
3 2 1 1 3 3 3 4 2 2 3 7 6 3 2 2 1 2 1 3 4 3 2 3 6 6 5 6 8 8 7 8 9 10 10 10 10 10 12 14 14 14 16 17 18 19 19 18 18 19 20 19 18 17 16 13 13 14 15 14 14 15 15 15 15 14 15 17 19 21 23 25 26 27 28 28 29 29 31 32 32 30 27 24 22 21
1 1 1 1 2 4 6 7 6 4 3 6 8 6 5 5 3 2 3 4 6 5 4 4 7 7 6 5 5 7 8 8 9 11 11 10 10 11 13 14 15 15 15 16 18 19 18 18 18 18 19 20 18 17 16 14 12 13 13 13 13 14 13 13 13 15 16 19 21 22 24 27 28 28 29 30 29 29 30 29 27 25 23 21 21 21
1 2 3 2 1 3 4 3 3 4 4 5 7 7 6 8 7 5 5 6 7 7 6 6 6 7 6 5 5 7 9 9 9 10 11 10 10 11 13 14 14 15 14 15 17 19 18 17 17 18 19 19 19 18 16 14 13 12 11 12 11 11 11 12 13 16 18 19 22 24 26 27 28 29 29 29 29 29 28 23 20 20 21 20 20 20
1 3 4 4 3 4 6 6 6 7 6 6 7 6 6 8 8 6 6 7 7 8 8 7 6 6 6 5 6 8 10 10 9 9 10 9 9 11 12 14 15 15 16 18 19 18 17 17 17 18 18 19 18 18 16 14 12 11 10 10 9 9 10 12 14 16 18 21 23 25 26 28 29 29 29 29 28 27 26 22 18 17 19 20 19 18
2 3 3 2 3 6 8 9 9 7 6 6 6 5 6 6 6 5 6 6 6 7 7 8 8 8 8 8 7 7 9 10 9 9 10 9 9 11 13 14 16 17 17 19 20 18 16 17 17 18 18 18 17 16 14 12 10 9 8 8 8 9 11 13 15 17 19 22 24 25 27 28 28 29 29 29 26 21 19 19 17 15 17 20 19 18
3 4 3 1 3 5 6 5 3 3 6 5 3 4 5 4 3 4 4 4 5 6 5 6 8 9 11 12 10 8 8 9 10 10 11 10 10 12 15 16 16 17 17 18 19 19 17 17 16 17 17 16 15 13 11 9 8 8 7 7 8 9 11 14 16 19 20 22 24 25 26 27 27 28 27 24 21 18 16 15 14 13 15 19 21 20
7 6 6 5 5 5 6 4 2 2 6 7 1 3 3 3 3 5 6 6 6 7 6 6 8 9 9 11 12 10 9 10 13 12 11 13 15 15 15 15 15 16 17 18 18 19 19 17 16 15 15 13 12 10 8 7 6 6 6 6 7 10 12 14 17 19 20 22 23 24 25 25 25 26 23 19 18 17 16 14 13 11 12 15 18 19
Wind_Direction
246 140 137 142 140 129 11 330 284 162 126 120 118 117 112 103 92 97 104 63 43 75 67 93 115 122 126 124 130 133 141 138 137 143 104 59 50 46 37 35 31 37 31 11 18 35 40 40 40 47 50 50 57 68 75 81 85 88 87 87 86 83 84 85 85 85 84 84 80 80 81 81 82 80 77 74 75 73 69 65 60 55 49 44 39 35
197 131 87 4 358 322 307 277 205 109 108 101 102 109 99 96 95 84 85 52 33 94 90 108 111 106 109 116 123 146 173 164 120 161 112 101 84 58 25 4 15 27 358 323 11 46 48 45 43 48 54 54 58 67 76 81 82 81 79 77 75 72 71 70 71 72 72 74 75 79 82 83 83 81 79 76 73 69 61 52 45 41 35 31 27 24
130 104 26 353 323 283 300 204 117 103 100 96 101 111 101 106 105 76 58 56 61 103 121 131 113 98 93 97 111 149 203 138 75 296 315 169 201 187 231 274 282 261 256 253 316 56 48 44 41 41 47 57 68 76 80 84 82 79 75 72 71 69 67 66 65 65 66 64 66 75 82 82 81 77 76 70 62 54 41 31 25 22 19 17 14 11
116 42 360 339 273 146 91 103 114 106 101 109 115 117 115 129 122 86 61 69 67 86 126 135 108 91 96 92 155 174 267 269 213 232 238 253 248 227 249 270 259 252 238 236 298 39 37 32 26 24 31 62 81 85 84 86 83 79 76 73 72 69 66 62 58 58 57 50 49 53 58 62 62 52 47 43 32 20 14 8 2 0 360 359 357 354
64 13 349 252 215 128 108 109 114 113 108 108 112 121 127 118 97 102 112 97 83 79 108 126 109 103 146 174 194 164 199 246 223 225 230 227 229 233 251 259 256 261 267 274 300 3 2 342 317 307 281 257 110 101 86 84 79 76 73 69 68 63 60 57 50 48 44 38 34 25 16 15 12 4 4 355 342 343 345 341 338 340 339 338 337 337
34 3 338 122 134 114 110 113 98 109 118 103 66 107 127 118 107 119 131 117 98 90 83 122 139 161 173 211 216 185 216 239 222 234 242 226 215 222 231 239 244 248 250 255 268 281 279 271 265 256 243 238 228 223 84 76 69 68 63 51 50 41 30 25 25 28 23 15 6 357 342 331 332 330 329 325 324 326 326 323 324 324 323 323 324 324
8 356 13 92 112 106 106 106 17 30 126 118 24 70 130 126 124 139 150 131 107 116 139 197 192 154 160 217 217 190 244 255 239 237 239 225 216 218 223 224 224 226 224 229 240 246 249 251 251 245 240 239 237 243 269 56 24 352 349 343 347 344 338 340 342 345 347 340 332 333 329 324 323 316 311 314 315 314 315 315 316 315 314 314 314 315
341 359 31 66 90 92 103 98 347 330 119 115 97 137 139 129 133 153 156 116 107 113 137 237 321 139 169 209 162 130 258 261 252 241 229 215 215 219 224 221 216 220 219 219 226 231 238 244 245 247 247 249 251 257 263 273 282 285 284 290 302 306 308 310 312 313 314 314 313 317 318 315 311 307 306 309 310 310 311 312 311 310 310 310 309 309
348 19 27 32 66 73 70 349 330 50 87 101 121 121 113 105 136 153 121 105 127 137 123 10 344 205 165 139 117 146 238 242 239 234 222 208 211 217 222 223 219 221 221 224 230 230 237 241 242 248 252 254 259 262 266 273 276 277 276 280 287 288 290 291 295 299 300 303 305 308 309 304 300 303 306 307 307 307 307 307 307 307 308 309 310 310
27 30 0 3 52 57 37 324 292 63 92 119 120 106 110 98 101 117 105 112 148 156 106 19 346 270 169 149 162 182 230 235 230 227 221 205 206 215 221 221 217 217 222 224 229 234 238 242 245 251 257 260 263 265 266 268 268 270 272 276 279 280 284 286 289 294 296 300 302 301 301 299 298 299 300 301 301 301 302 301 303 304 305 306 308 309
67 21 303 24 38 336 50 55 8 86 113 133 131 120 128 113 85 80 87 112 157 159 92 27 347 319 197 167 178 193 219 233 225 219 214 200 203 214 221 223 218 217 219 216 223 236 242 248 253 258 262 262 261 262 263 262 262 265 269 272 274 276 279 283 287 289 291 293 294 293 293 293 294 293 293 294 295 296 297 297 299 300 301 303 305 306
57 39 4 28 15 322 69 80 61 81 116 139 147 130 112 101 97 92 82 144 183 175 91 39 342 307 237 177 166 200 194 181 232 219 206 203 201 204 215 223 220 218 217 211 223 238 245 251 255 256 258 259 258 257 257 259 261 264 268 270 274 276 277 280 283 285 286 286 286 286 286 286 287 287 286 287 289 292 293 294 295 296 296 299 301 302
37 24 16 350 29 20 31 102 92 88 127 151 154 133 112 118 127 126 133 176 189 142 73 28 339 282 254 274 144 198 210 215 232 228 220 213 201 198 206 214 212 209 209 211 228 236 240 246 248 249 250 253 255 254 255 259 262 266 270 272 275 278 279 279 279 281 281 281 281 281 281 281 282 282 282 282 285 288 289 288 289 291 292 293 295 298
47 34 12 354 8 10 3 96 120 117 127 139 142 124 123 137 145 149 151 181 181 105 67 5 322 248 258 281 148 170 185 226 252 250 256 252 225 211 209 211 203 195 206 217 229 233 236 241 244 247 249 251 254 255 256 259 262 266 270 272 274 278 280 278 276 276 277 277 279 279 278 278 277 277 279 280 282 285 286 286 287 289 291 291 293 297
80 79 10 356 342 347 2 36 66 82 87 67 5 2 128 137 145 155 160 149 138 111 84 84 256 236 238 56 90 87 46 329 294 272 265 278 275 276 287 256 213 210 220 223 230 236 239 242 245 249 252 254 255 256 258 260 263 266 269 271 273 276 278 277 276 275 275 276 277 278 277 275 274 274 275 277 279 282 284 285 286 288 291 291 293 297
83 77 338 303 288 328 2 21 351 12 78 79 318 311 94 16 25 118 109 58 94 112 119 170 258 271 269 29 19 339 300 277 277 268 248 243 257 272 270 253 234 229 230 225 231 239 241 243 247 251 253 256 257 258 258 259 261 264 268 272 272 274 277 278 277 276 276 278 278 278 277 276 275 275 275 276 278 281 283 285 286 287 289 291 293 295
100 82 337 292 274 341 14 16 360 1 74 150 219 45 60 351 47 115 99 37 302 195 137 205 263 254 250 213 231 285 286 276 262 253 242 231 230 242 247 242 234 234 233 230 235 239 241 244 248 252 254 257 258 259 259 260 263 266 270 273 273 275 277 277 277 278 279 280 280 279 279 278 278 277 277 278 279 282 284 284 285 286 288 291 293 295
90 104 30 325 355 28 17 360 359 28 359 235 126 112 115 8 3 112 121 122 218 197 113 310 269 279 286 186 146 211 359 13 255 263 258 245 237 237 242 240 235 237 239 242 245 245 248 247 249 254 256 258 259 260 261 263 266 269 271 273 274 275 276 277 280 281 282 283 282 282 283 282 283 282 282 282 282 283 284 284 286 288 289 292 295 297
51 99 90 282 320 37 13 340 346 46 36 42 96 116 162 192 122 116 122 144 168 151 117 216 266 277 257 221 62 4 14 23 276 245 246 241 240 237 242 245 243 247 246 248 250 248 248 247 250 256 258 260 262 263 265 266 268 270 272 274 275 276 278 279 280 282 283 284 284 285 286 286 286 286 285 285 285 284 284 285 287 288 290 294 299 301
287 90 108 188 197 212 303 23 6 39 42 68 105 113 315 350 38 90 55 295 188 142 134 149 239 241 201 201 310 304 324 334 307 283 256 247 248 246 248 250 248 250 248 247 249 248 250 251 254 258 261 263 265 266 268 269 270 272 273 274 276 278 280 281 282 283 285 286 287 288 289 289 289 289 288 288 287 286 285 287 288 291 294 297 301 305
287 45 102 151 189 192 56 29 3 353 7 20 96 85 90 63 345 117 89 6 356 152 157 131 138 101 85 156 254 290 315 319 302 292 286 277 267 253 250 250 248 250 249 250 252 255 259 261 261 264 267 271 273 274 275 275 275 276 277 279 281 283 285 287 288 290 292 294 295 295 295 295 295 294 292 291 290 289 289 290 292 295 298 300 304 308
338 47 77 48 41 54 46 25 346 328 340 337 347 9 45 70 237 158 107 84 359 8 268 111 127 113 67 153 226 281 303 294 284 281 282 283 278 271 264 255 255 259 260 262 267 268 269 271 271 272 274 277 278 279 281 281 282 283 285 287 289 290 292 295 298 300 301 302 301 300 300 300 298 297 296 295 295 294 295 296 298 301 303 304 308 311
345 72 71 55 35 24 18 33 347 284 288 292 316 5 4 17 263 306 123 148 132 62 264 265 98 112 120 166 225 260 284 288 282 268 272 285 293 296 297 292 284 278 276 279 281 281 281 281 282 282 281 280 280 281 284 285 286 288 290 293 294 296 299 303 305 306 305 304 303 303 303 301 300 300 300 300 300 300 302 303 305 306 307 309 312 313
309 76 74 79 192 269 228 167 165 256 262 256 254 87 261 309 2 337 32 129 146 159 218 225 135 142 141 140 231 268 283 285 278 260 265 282 296 298 298 299 296 288 287 286 284 284 284 284 284 283 281 280 280 283 286 288 290 293 296 299 299 300 304 308 308 308 308 308 307 308 306 304 304 305 305 305 306 307 308 309 310 311 312 314 314 314
326 57 115 126 129 145 180 179 184 216 242 244 49 46 4 44 73 91 68 98 181 167 351 268 152 139 108 109 229 262 283 285 276 255 252 270 288 296 297 294 289 290 290 288 288 286 284 284 283 280 279 279 281 284 288 292 295 297 299 300 301 303 307 312 312 313 313 311 310 309 307 307 309 310 310 310 310 311 312 313 314 315 315 316 316 315
49 50 339 165 133 134 144 155 165 159 158 145 2 225 201 78 349 282 126 199 218 136 140 247 152 96 110 188 241 251 264 282 279 263 245 255 272 281 287 291 293 295 295 296 297 293 291 289 285 284 284 281 282 287 292 296 298 298 297 299 302 305 309 313 314 313 312 310 309 308 308 311 314 314 314 313 313 313 314 315 316 317 317 318 317 317
119 82 25 335 66 43 67 68 20 34 129 157 176 197 206 211 311 286 253 275 140 137 184 238 274 352 251 215 230 225 224 265 287 291 279 266 268 274 283 293 298 298 296 299 299 296 297 295 290 291 290 286 289 294 296 297 295 294 293 297 303 306 308 312 312 310 309 309 308 308 311 315 316 316 315 314 315 315 316 318 319 319 320 319 318 318
140 93 40 43 22 358 11 25 360 359 81 164 165 176 199 201 197 238 260 311 133 148 207 232 181 253 270 185 203 219 242 281 291 293 295 296 293 290 290 290 290 289 287 288 288 288 291 293 292 293 292 293 299 300 298 295 292 291 291 293 300 304 307 310 309 307 307 308 309 311 314 317 317 317 317 317 318 320 320 321 321 320 320 320 320 320
120 78 44 353 27 0 345 346 333 336 25 346 230 200 200 194 193 215 241 222 202 218 352 85 175 240 267 272 263 261 273 283 286 295 299 297 289 285 288 287 286 291 293 294 294 291 288 290 291 291 292 296 299 299 296 294 294 295 295 296 299 303 307 309 308 308 309 310 311 315 318 319 319 320 321 322 323 323 323 322 321 320 321 321 322 321
162 86 100 159 76 48 21 2 329 286 341 286 248 224 213 208 213 235 273 274 246 272 313 130 250 270 271 269 277 285 292 274 280 291 286 276 277 282 285 285 286 293 297 295 295 293 289 287 287 288 290 292 293 293 294 297 300 302 303 304 305 306 310 312 310 310 311 312 315 319 321 322 323 323 323 323 323 323 322 322 321 322 322 322 321 318
284 85 111 180 153 67 38 30 53 74 76 270 255 223 201 211 235 249 264 239 242 275 273 233 271 279 266 252 271 286 309 271 268 277 277 276 282 283 281 283 289 295 295 291 288 287 286 284 283 282 285 289 291 293 298 302 306 308 309 311 312 312 313 312 311 311 313 315 318 321 323 324 324 322 321 322 322 323 323 323 322 322 321 318 316 313
351 105 136 214 186 90 31 9 14 1 289 261 270 234 192 188 213 222 218 205 201 206 174 174 244 267 233 187 276 270 256 256 259 264 273 279 280 278 284 292 297 296 294 291 287 285 284 283 282 281 285 292 295 297 303 308 310 311 313 314 313 312 312 312 312 313 315 317 320 322 324 325 323 321 320 321 323 323 323 323 321 319 316 313 311 309
11 120 135 313 268 112 14 349 326 302 270 207 287 215 178 186 212 222 228 225 214 194 162 178 210 163 112 282 285 275 265 273 279 273 275 280 278 275 274 277 284 284 283 284 283 283 284 284 290 295 299 301 300 301 307 310 308 311 313 312 312 312 313 314 314 315 316 318 321 323 324 324 322 320 320 321 322 322 322 320 317 315 313 312 310 308
23 44 84 325 310 124 329 315 293 280 219 93 40 97 156 191 204 209 230 222 206 207 231 279 300 296 263 250 261 279 282 288 298 294 282 273 273 280 278 272 273 274 274 276 275 277 283 288 296 302 305 306 305 304 308 309 309 311 312 312 313 314 315 315 315 316 317 319 321 323 323 322 320 318 318 319 320 320 319 317 315 316 315 313 310 307
72 65 93 8 343 118 253 269 208 138 84 68 64 112 10 314 212 228 261 245 206 212 240 270 276 266 263 258 252 263 274 283 291 283 272 260 245 255 270 271 269 269 271 277 278 279 284 289 295 300 304 308 306 303 305 309 311 312 311 312 314 313 314 314 314 314 316 318 319 320 320 320 317 316 317 318 319 318 318 318 319 318 316 312 309 307
109 114 118 79 343 290 290 117 291 317 29 84 152 154 195 320 204 251 278 251 207 207 216 239 259 263 267 268 261 262 273 282 281 261 253 251 234 228 243 255 262 267 271 277 282 287 291 294 298 301 306 309 306 302 305 309 310 309 308 309 310 310 311 311 311 312 315 315 316 317 318 318 317 317 318 320 321 321 322 322 320 317 315 311 308 307
83 144 151 51 23 53 53 266 287 309 300 188 202 177 186 215 182 245 303 258 196 197 196 213 248 262 263 266 275 299 303 289 284 246 218 229 225 221 232 248 262 272 278 286 292 295 298 301 303 305 307 306 301 301 305 307 306 306 305 305 307 309 310 309 309 311 312 313 314 317 320 322 321 321 322 325 326 326 325 322 318 316 315 311 309 309
14 326 195 138 51 108 342 291 286 307 268 172 140 126 168 262 268 242 289 292 188 190 191 203 231 250 255 265 290 341 321 296 295 296 153 210 234 226 239 259 271 278 283 290 294 296 299 302 303 303 302 299 297 302 307 306 306 305 303 304 307 307 307 307 309 311 313 314 318 322 325 327 328 327 328 330 330 327 323 320 317 316 315 312 309 309
52 1 245 129 94 157 182 57 172 196 225 69 82 97 128 243 106 227 260 239 159 183 194 204 227 246 253 258 274 356 313 299 299 318 80 147 264 253 260 272 280 285 289 291 292 292 295 299 300 300 300 297 299 308 312 309 308 305 301 303 306 306 306 308 312 315 317 319 323 327 330 333 333 333 334 333 330 326 323 321 320 318 316 314 310 309
53 9 322 111 85 124 148 151 232 235 274 30 131 117 105 111 138 276 286 173 140 178 187 195 223 245 247 228 194 238 273 287 298 313 38 306 283 278 276 277 281 285 288 292 295 297 297 298 299 299 300 301 306 313 315 313 310 306 303 305 306 305 308 312 316 319 321 324 329 332 334 335 335 336 337 334 331 328 327 326 323 321 320 317 313 311
37 15 11 70 82 124 182 290 281 261 234 175 174 141 124 144 205 270 313 68 116 173 183 193 225 246 242 215 218 242 255 268 287 306 323 307 294 289 286 285 285 285 287 292 298 301 300 300 302 302 304 310 314 317 318 315 309 305 304 305 304 306 313 319 321 323 326 330 333 335 335 335 337 337 337 336 333 331 331 329 326 325 324 319 314 312
114 82 75 104 87 100 182 276 289 283 202 146 124 102 135 211 239 5 20 45 77 163 184 202 230 243 234 230 237 255 267 272 282 295 297 291 287 286 287 287 288 291 295 298 301 302 301 302 305 307 310 316 319 318 318 314 308 305 304 303 305 313 321 324 324 327 330 333 334 334 335 337 338 339 338 337 336 334 332 331 329 327 324 320 315 312
162 156 152 176 163 104 26 269 288 319 153 146 136 127 205 232 245 76 93 240 160 184 197 212 234 239 234 245 246 248 264 278 281 281 280 277 275 275 280 283 284 289 294 298 302 306 307 305 306 309 312 317 320 319 318 314 308 304 303 306 314 321 323 323 325 329 331 333 334 335 337 339 340 341 340 338 338 336 333 332 330 328 325 321 316 310
188 192 274 218 182 154 93 216 243 18 138 167 169 175 207 220 98 68 12 313 266 236 231 238 248 238 228 249 262 262 267 274 277 278 278 277 275 276 280 284 285 286 290 293 300 309 311 307 306 308 311 317 321 320 319 316 308 302 305 312 320 322 321 322 327 331 333 335 337 338 340 342 341 341 340 339 338 337 333 332 330 328 325 320 312 306
208 193 313 255 202 204 243 242 245 44 127 191 224 263 251 249 30 86 304 301 284 260 250 260 265 260 243 251 271 282 278 271 275 282 285 285 288 291 293 294 292 291 294 298 304 312 312 306 304 305 309 316 322 322 321 318 309 305 309 316 318 318 320 325 330 333 337 338 340 342 342 342 340 339 339 339 339 336 333 332 330 326 322 315 308 305
252 94 78 238 236 260 264 249 242 261 246 222 238 262 281 282 270 224 241 265 266 264 260 257 266 273 271 267 274 279 277 278 284 288 287 287 292 295 295 295 294 294 297 301 307 312 311 306 303 303 306 314 321 323 322 321 316 312 311 313 314 317 324 330 332 336 340 341 343 345 344 341 339 339 338 339 338 336 333 332 327 320 314 312 311 312
222 159 196 234 282 287 270 235 210 235 242 229 231 243 258 263 257 249 247 248 253 262 263 258 265 272 270 265 262 266 274 280 284 288 290 289 292 298 299 297 297 297 300 303 307 311 309 304 301 303 305 311 319 322 323 323 322 316 311 311 316 323 330 332 335 339 343 344 346 345 343 340 339 338 338 337 336 335 333 330 323 315 312 312 315 317
171 173 209 220 208 233 269 290 284 263 248 242 240 238 242 252 252 247 245 247 256 266 265 259 258 261 262 256 248 257 272 277 276 281 287 288 293 299 298 296 297 299 303 307 309 309 305 299 300 303 305 309 315 320 322 323 320 315 312 316 322 328 332 334 339 344 346 347 347 344 340 339 339 337 336 335 335 335 333 328 323 317 311 311 312 314
108 178 204 209 229 257 279 285 281 276 263 240 224 217 227 239 243 243 248 253 256 261 265 262 250 241 247 253 251 255 268 272 272 275 280 284 292 296 295 296 299 300 303 307 308 306 300 297 299 302 303 307 314 318 321 320 315 312 316 322 327 331 335 339 344 348 349 348 345 342 339 338 338 337 336 335 334 332 328 324 321 314 307 309 312 314
161 198 188 181 257 262 261 249 240 285 284 266 207 191 220 226 219 236 255 261 254 253 259 269 269 262 256 253 249 245 256 269 275 280 282 282 285 290 292 296 299 299 301 305 306 305 301 299 300 302 304 309 315 318 317 311 307 311 318 323 328 333 339 345 349 350 350 347 343 340 339 338 336 336 336 333 329 326 323 322 319 311 303 306 312 319
196 196 176 189 222 245 252 243 162 177 265 274 253 164 214 219 193 230 255 262 263 265 261 259 272 279 274 264 252 239 242 266 276 280 283 283 284 286 290 292 293 295 299 303 304 304 303 304 306 306 307 312 316 314 308 302 301 307 313 320 332 339 345 352 354 351 348 344 341 339 338 337 336 336 334 330 327 324 322 321 321 315 307 308 315 324
Height
818 819 825 827 830 830 829 832 826 814 812 818 825 833 845 857 868 870 869 869 861 866 880 879 881 889 892 895 896 894 895 894 895 895 895 896 895 895 895 895 895 894 895 895 896 896 894 894 893 891 891 890 890 888 887 887 885 884 883 883 883 882 882 881 881 880 879 878 877 877 875 874 873 872 872 871 870 869 868 867 866 864 863 862 861 860
819 824 835 838 840 841 838 835 825 817 819 824 832 842 853 863 871 873 869 869 864 869 886 885 883 891 893 895 896 894 894 893 894 894 894 895 894 895 895 895 895 895 896 896 895 896 895 894 893 892 891 891 890 889 888 887 886 885 884 883 883 883 882 882 881 880 879 879 877 877 876 874 874 873 872 871 870 869 868 867 866 865 864 863 861 860
823 831 841 844 845 843 838 830 821 822 826 831 839 848 859 866 868 872 872 870 865 869 886 887 884 892 895 894 895 895 894 893 895 896 895 895 894 895 895 895 896 896 896 896 895 895 894 894 893 893 892 891 890 890 888 887 886 885 884 884 883 883 883 882 881 880 879 878 877 876 876 875 874 873 872 871 870 869 869 868 866 865 864 863 861 860
831 838 845 847 845 838 832 829 823 825 830 835 842 849 861 862 858 868 877 874 869 871 882 884 883 891 894 894 895 893 894 895 896 898 897 897 896 894 896 896 896 895 894 894 894 894 894 893 894 893 892 892 891 890 888 887 886 885 885 884 884 883 882 882 881 880 879 878 877 877 876 875 874 873 873 872 871 870 869 868 866 865 864 862 861 860
839 844 848 846 841 832 828 831 826 827 835 841 844 847 855 859 857 868 876 873 873 877 880 879 882 890 892 892 891 891 894 895 894 896 895 895 896 896 896 896 895 894 894 893 893 893 894 894 894 893 892 891 890 889 888 887 886 885 885 884 884 883 882 881 881 880 879 879 878 878 876 876 875 874 873 872 871 870 868 867 866 865 863 862 861 860
844 844 845 840 835 830 830 833 831 830 837 848 854 851 851 857 862 868 868 865 872 883 885 882 881 885 890 890 886 887 890 890 891 893 892 892 894 896 895 895 894 893 893 893 893 893 894 894 893 893 892 891 890 889 887 886 885 885 885 884 883 883 882 881 881 880 880 879 879 878 877 876 875 874 873 872 871 869 868 867 865 864 863 861 860 859
851 846 841 837 836 834 830 833 839 836 833 847 860 857 851 854 860 865 861 856 865 879 887 885 877 878 887 885 882 886 887 886 888 889 889 890 892 893 892 891 891 891 892 892 893 893 893 893 893 892 891 890 889 888 886 885 885 885 884 884 883 883 882 882 881 880 880 880 879 878 877 876 875 874 873 871 870 868 867 866 864 863 862 860 859 858
857 849 843 839 837 835 833 836 845 838 832 849 863 859 855 853 857 861 856 854 866 876 882 881 872 870 879 883 885 891 890 886 885 883 884 886 888 889 888 888 888 889 890 891 891 892 892 891 891 890 889 888 887 886 885 885 885 885 884 884 883 883 882 882 881 880 880 879 878 877 876 875 874 873 872 870 869 868 866 864 863 862 860 859 858 856
861 856 854 847 840 842 846 850 849 840 841 858 863 859 860 858 856 855 851 858 866 868 873 877 873 865 869 881 890 892 889 882 877 874 875 880 883 884 884 885 886 888 888 889 890 890 890 890 889 888 887 886 886 885 885 885 884 884 884 883 883 882 882 881 880 879 879 878 877 876 875 875 873 872 871 869 868 866 865 863 862 860 859 857 856 855
862 863 862 855 850 852 857 857 851 842 846 859 861 861 864 860 855 851 850 858 861 861 872 883 881 867 861 872 882 885 883 874 867 867 869 874 878 880 882 883 884 886 887 888 888 888 888 888 887 887 886 885 885 885 884 884 884 884 883 883 882 881 880 880 879 878 877 877 876 875 874 873 872 870 869 867 866 864 863 861 860 859 857 856 854 853
864 864 863 861 862 860 857 854 850 844 846 854 857 856 856 852 850 849 850 856 858 863 879 891 890 876 862 861 866 871 873 867 863 866 869 873 876 877 879 881 882 883 884 885 886 886 886 886 886 885 885 885 884 884 884 883 883 882 882 881 880 880 879 878 877 877 876 875 874 874 872 871 870 869 867 866 864 863 861 860 858 857 855 854 852 851
862 861 863 864 865 862 854 850 853 850 848 851 849 846 850 851 851 856 858 858 859 868 885 894 895 885 867 858 858 862 867 868 865 864 867 871 873 874 877 878 879 880 881 883 884 885 885 884 885 884 884 884 883 883 882 881 881 881 880 880 879 878 878 877 876 875 874 874 872 871 870 869 868 867 865 864 862 861 859 857 856 854 853 851 849 848
863 863 864 863 862 864 857 851 854 853 849 848 844 842 852 858 860 866 870 868 866 875 891 896 895 885 865 854 857 860 863 867 867 864 865 867 868 870 872 873 875 877 879 881 882 882 883 883 883 883 882 882 882 881 880 880 879 879 878 878 877 876 876 875 874 873 872 871 870 869 868 867 866 864 863 861 860 858 857 855 853 852 850 848 846 845
865 862 864 864 862 865 864 855 851 853 850 847 846 845 852 861 868 879 889 886 879 882 894 899 894 878 859 852 856 860 863 867 869 869 869 869 869 868 869 871 874 877 879 880 881 881 881 881 881 881 881 880 879 879 878 878 877 877 876 876 875 874 874 873 872 871 870 869 868 867 866 864 863 862 860 858 857 855 854 852 850 849 847 845 843 842
868 868 874 876 871 869 871 866 863 861 855 857 861 852 850 856 860 872 881 876 875 883 893 900 891 867 855 859 863 865 870 873 874 874 874 874 875 873 873 874 875 877 879 879 879 879 879 880 880 879 879 878 877 877 876 876 876 875 875 874 873 872 871 871 870 869 868 866 865 864 863 862 860 858 857 855 853 852 850 849 847 845 844 842 840 838
877 881 882 882 881 879 875 875 880 870 856 865 869 854 854 863 866 882 893 889 886 882 884 891 880 862 859 865 870 872 873 874 875 876 876 874 875 876 876 875 875 876 877 877 878 878 878 878 877 877 876 875 875 875 874 874 874 873 873 872 871 870 869 869 867 866 865 864 863 862 860 859 857 856 854 852 850 849 847 846 844 842 841 839 837 835
875 882 882 879 881 881 878 879 884 875 861 862 863 861 873 881 879 885 898 910 899 873 874 887 872 859 861 862 869 875 872 872 874 875 875 874 874 876 875 874 875 874 874 875 875 875 875 875 875 874 873 873 873 872 872 872 872 871 871 870 869 868 867 866 865 863 863 861 860 859 857 856 855 853 852 850 848 846 845 843 841 839 838 836 834 832
870 875 880 880 875 878 885 884 881 881 874 859 857 871 884 886 883 873 873 890 883 863 875 890 875 863 860 856 862 869 865 866 870 872 874 874 873 874 873 872 873 873 873 874 873 873 873 873 872 872 871 871 870 870 870 870 870 869 868 868 866 866 864 863 862 861 860 859 857 856 855 853 852 851 849 847 845 844 842 840 838 836 834 833 832 829
872 868 876 882 877 880 888 882 873 875 878 869 868 881 879 868 864 862 866 873 867 868 880 882 880 876 863 855 856 859 860 862 866 870 871 870 869 869 870 870 870 871 872 872 872 871 871 870 870 869 868 868 868 868 868 867 867 866 865 865 864 863 862 861 860 859 857 856 855 853 852 850 849 848 846 844 842 840 838 836 835 833 831 830 829 826
875 862 868 878 878 880 880 876 874 875 879 877 874 881 883 876 870 871 882 876 861 873 883 873 872 868 856 859 860 857 861 863 865 869 867 866 867 867 868 869 869 870 870 870 869 868 868 867 867 866 866 866 865 865 865 864 864 863 862 862 861 860 859 858 857 856 855 853 852 850 848 847 845 844 842 840 838 836 834 833 831 830 829 827 826 824
874 856 863 872 872 876 881 888 896 893 890 883 872 871 879 890 892 885 895 904 884 871 871 866 863 856 853 863 864 859 863 866 868 869 867 867 867 867 868 868 868 868 867 867 867 866 866 865 865 865 864 863 863 862 862 861 861 860 860 859 858 857 856 855 854 853 851 850 848 846 844 843 841 839 838 836 834 832 830 829 828 827 826 824 822 821
874 860 868 877 876 883 894 908 917 912 908 901 887 882 883 888 886 867 877 916 918 893 883 874 860 852 857 865 866 864 866 868 872 872 868 867 865 865 867 867 868 868 866 866 866 865 865 864 863 863 862 861 860 859 859 858 858 857 857 856 856 855 853 852 851 850 848 847 845 843 841 839 838 835 834 832 830 829 828 826 825 824 822 821 819 818
888 873 878 892 897 900 905 916 922 919 918 912 900 901 901 893 880 857 856 889 911 917 916 897 868 853 858 867 869 868 871 871 873 875 872 868 865 866 867 867 868 867 866 866 865 865 864 863 862 861 860 859 858 857 857 856 856 855 854 854 853 852 851 850 849 847 846 844 842 840 838 836 835 833 831 830 828 826 825 824 823 821 820 818 817 816
889 878 882 896 900 901 906 917 925 923 918 906 898 906 906 895 890 880 874 878 886 901 900 878 863 854 856 871 875 872 876 876 874 876 874 870 868 867 867 867 867 866 866 865 864 864 863 861 861 859 858 857 856 855 855 854 854 853 852 852 851 850 849 847 847 845 843 842 839 838 836 833 832 830 829 828 826 824 823 822 821 819 818 816 815 813
881 879 880 878 879 883 887 893 898 905 909 901 898 909 909 907 909 902 898 886 874 890 893 865 853 853 857 873 877 873 876 873 870 874 874 872 869 867 867 866 866 866 865 864 863 862 861 860 859 857 856 855 854 853 853 852 852 851 850 850 849 848 847 845 844 843 841 840 837 835 834 832 830 829 827 826 824 822 821 820 819 817 816 814 812 810
889 896 886 864 855 857 858 864 872 882 895 899 904 911 910 913 911 895 887 872 862 896 911 873 848 850 858 868 868 868 873 869 866 870 871 872 870 868 868 866 865 866 864 863 862 860 860 858 857 856 855 854 853 852 852 851 850 850 849 848 847 846 845 844 842 841 839 837 836 833 832 830 829 827 825 824 822 821 820 818 817 815 813 811 810 807
903 911 910 888 868 865 867 880 895 893 888 891 899 906 908 913 914 899 880 863 867 897 898 872 865 860 853 860 862 863 869 867 866 867 866 868 868 867 869 866 865 866 863 863 862 859 859 857 855 855 853 852 852 850 850 849 848 848 847 846 846 844 843 842 840 839 837 835 834 832 830 829 827 826 824 822 821 819 818 816 814 812 810 809 807 805
889 890 916 917 902 906 909 911 918 909 895 893 894 898 905 911 914 902 880 872 881 881 863 868 888 872 849 856 861 861 866 866 865 865 864 866 867 866 867 866 865 865 862 862 861 858 858 856 854 854 851 851 850 848 848 848 846 846 845 844 844 843 842 841 839 837 835 833 832 830 829 827 826 824 822 820 819 817 815 813 812 810 808 806 804 802
881 883 920 926 913 928 935 925 924 918 910 911 904 899 904 910 909 897 885 889 889 868 857 878 894 874 855 859 860 859 865 865 864 866 866 867 867 866 866 865 863 862 860 859 858 856 856 854 853 852 850 849 848 847 846 846 845 844 843 842 842 841 840 839 836 835 833 831 830 828 827 825 823 822 820 818 817 815 813 811 809 807 806 804 802 800
889 893 929 933 912 924 935 928 929 925 915 912 908 906 906 907 909 901 895 903 900 885 887 899 898 884 869 864 862 861 865 868 868 868 867 866 865 864 864 863 861 860 859 857 856 855 854 853 852 850 849 847 846 845 845 844 843 843 842 841 840 839 838 836 834 833 831 829 828 826 825 823 821 820 818 816 815 813 811 809 807 805 804 802 800 798
886 896 940 937 897 900 927 929 925 926 918 908 903 910 914 911 912 911 908 911 906 897 900 905 901 888 870 865 867 865 866 871 869 866 864 861 862 863 862 861 859 858 857 856 855 853 852 851 850 849 848 846 845 845 843 842 842 841 840 840 838 837 836 834 832 831 829 828 826 825 823 821 820 818 816 814 813 811 809 807 805 804 802 800 798 796
892 901 932 919 867 873 918 925 917 924 921 905 890 894 908 911 904 902 904 901 893 887 893 895 883 868 862 868 870 865 866 868 864 862 862 859 860 862 860 859 858 856 855 854 852 852 850 849 848 847 846 845 844 843 842 841 840 839 838 837 836 835 833 832 831 829 827 826 824 823 822 820 818 816 814 813 811 809 808 806 804 802 799 798 796 793
913 897 903 898 859 862 909 924 918 909 886 868 866 871 889 901 897 895 898 896 890 884 879 869 856 854 865 872 867 860 860 861 858 859 860 859 859 860 859 858 857 854 854 852 851 850 849 847 847 845 844 844 843 842 841 840 838 837 836 835 834 833 831 830 829 827 826 824 823 821 820 818 816 814 812 811 809 808 806 803 802 800 797 796 793 791
921 901 906 909 869 858 902 922 906 878 848 849 873 883 886 889 885 881 879 881 885 880 868 860 858 863 870 868 862 859 856 856 857 858 859 860 860 858 856 856 854 853 852 850 849 849 847 846 845 844 843 842 841 840 839 838 836 835 834 833 832 831 829 828 827 825 824 823 821 820 818 816 815 813 811 810 808 806 804 802 800 798 796 794 791 788
914 907 915 920 890 876 898 896 865 845 846 866 888 894 890 887 885 879 870 870 877 877 871 867 863 862 862 861 860 859 857 857 860 860 859 858 858 858 856 853 851 851 849 848 848 846 845 845 843 842 841 840 839 839 837 835 834 833 832 831 830 829 828 827 825 824 822 821 819 818 816 815 813 811 810 808 806 804 803 801 799 797 794 791 788 785
908 906 907 915 908 888 876 864 847 846 863 879 888 893 893 890 888 879 863 857 864 869 870 867 860 856 859 859 858 858 860 862 861 858 856 854 854 855 854 851 850 848 847 847 846 844 843 843 841 840 840 838 837 836 835 834 833 831 830 829 828 827 826 825 823 822 820 819 817 816 815 813 812 810 808 807 805 803 801 799 797 794 791 788 785 782
911 908 898 896 902 892 872 862 857 854 861 866 870 880 883 877 876 870 854 847 854 862 867 864 858 855 855 854 856 859 861 860 854 850 849 850 851 851 850 849 848 846 846 845 844 843 842 840 839 839 837 836 835 834 833 832 831 830 829 828 827 825 824 822 821 819 818 817 816 815 813 812 810 809 807 806 804 802 800 798 795 792 789 785 782 779
915 911 897 885 897 906 886 862 854 849 849 850 856 871 878 873 873 873 860 850 851 858 864 861 855 852 851 851 856 859 859 854 847 843 845 847 849 849 849 848 847 846 845 844 842 841 839 838 838 836 835 835 833 832 831 830 829 828 827 825 824 823 821 820 819 818 817 816 814 813 812 810 809 808 806 805 803 801 798 796 793 790 787 784 780 777
917 921 913 892 895 904 878 852 852 852 846 850 861 872 879 878 877 875 862 849 847 855 863 861 854 851 850 851 856 859 857 852 844 842 845 847 848 848 848 847 845 845 843 842 841 839 837 836 835 833 833 832 831 830 829 828 827 826 824 823 822 820 819 818 817 817 816 814 813 812 810 809 808 806 805 803 802 799 797 794 791 788 785 782 779 775
907 911 907 886 887 902 885 859 860 857 850 859 870 873 878 882 879 869 853 844 846 853 860 861 855 851 851 854 859 859 854 850 845 842 845 847 847 847 846 845 844 843 841 839 839 837 835 833 832 831 831 830 829 828 827 825 825 823 822 821 820 818 818 817 816 816 814 813 812 810 809 808 807 805 804 802 800 798 795 792 789 786 783 780 777 773
907 914 918 901 895 908 896 868 860 858 857 866 874 876 881 882 872 858 846 844 847 850 856 859 854 851 853 856 857 854 850 848 845 843 845 847 845 844 844 843 842 840 839 837 836 834 833 831 830 829 829 828 827 826 824 824 822 821 820 820 818 817 817 816 815 814 813 812 811 809 808 807 806 804 803 801 798 795 793 790 787 784 781 777 774 771
898 907 919 916 908 914 909 886 867 858 859 869 876 881 883 871 855 849 847 848 850 849 854 857 854 853 855 856 855 852 848 847 846 846 846 845 844 843 841 840 839 837 836 835 833 832 831 828 827 827 826 826 825 824 823 822 820 819 819 818 817 817 816 815 814 813 812 811 809 808 807 806 805 803 801 798 796 793 791 788 786 783 780 776 772 769
889 883 888 904 911 913 909 890 862 846 854 870 873 876 877 861 845 846 850 851 852 852 854 856 854 854 855 854 853 851 849 848 848 846 845 843 842 841 839 837 837 835 833 832 831 830 829 827 825 825 824 824 823 821 821 820 818 818 817 816 816 815 814 813 813 811 810 809 808 807 806 804 803 801 799 796 794 792 789 786 783 781 778 775 771 766
891 878 874 890 900 892 878 864 848 841 854 865 858 854 859 854 848 852 854 852 852 853 854 854 853 852 853 852 851 849 849 849 847 844 843 840 838 838 836 834 834 833 831 830 829 828 827 825 824 823 822 822 821 820 819 818 817 817 816 815 815 814 812 812 811 810 809 807 806 805 804 803 801 799 797 795 792 790 787 784 781 778 776 773 769 764
881 880 875 881 888 881 864 852 848 850 859 864 854 847 849 851 853 856 855 853 854 852 852 852 851 849 850 850 849 848 848 847 844 842 840 837 835 834 833 831 831 830 829 828 826 826 825 824 823 822 820 819 819 818 817 817 816 815 814 814 813 812 811 811 809 808 807 806 805 804 802 801 799 797 796 794 791 788 785 782 779 776 773 770 767 763
886 890 885 881 881 877 863 852 853 856 857 859 856 853 853 853 853 854 855 855 852 849 849 850 848 847 848 848 849 848 845 842 841 839 836 833 832 831 830 829 828 828 827 826 824 824 823 822 821 820 818 817 816 816 815 815 815 814 813 813 812 810 810 809 808 807 806 805 804 802 800 798 797 795 794 792 789 787 784 781 779 775 771 769 766 762
889 891 887 881 878 871 855 846 852 855 852 853 854 853 854 853 851 851 852 851 849 847 847 848 847 846 847 846 847 846 842 840 840 837 833 831 830 829 829 828 826 825 825 824 823 822 822 821 819 818 816 815 814 814 814 814 813 813 812 811 810 810 809 808 806 806 805 804 802 800 799 797 795 793 791 789 787 785 783 781 779 774 770 767 765 762
882 887 884 879 878 871 854 845 849 852 849 849 850 849 850 849 847 847 848 846 846 846 845 845 846 845 844 844 844 843 840 838 837 835 832 829 828 828 827 826 824 823 823 822 821 821 820 819 817 816 814 813 813 813 813 812 812 811 810 809 809 808 807 806 806 805 804 802 800 799 797 795 794 792 789 787 786 783 781 779 778 775 770 766 764 763
882 883 878 875 875 870 858 848 847 845 842 841 843 845 846 844 844 845 845 844 845 844 843 843 843 842 842 841 840 840 838 835 833 832 831 828 827 827 825 823 823 822 821 820 820 819 818 817 816 814 813 812 812 812 811 811 810 809 809 808 807 807 806 805 805 804 803 801 800 798 796 794 792 790 787 785 784 782 781 779 776 774 770 765 763 763
882 874 873 876 873 862 849 842 841 841 838 835 837 841 842 841 842 843 842 842 842 841 841 841 839 838 838 837 837 838 836 832 830 830 828 826 825 825 823 822 821 820 819 819 818 817 817 816 814 813 812 811 811 811 810 809 809 808 808 807 806 806 805 804 804 803 802 800 799 797 795 793 791 789 786 784 782 780 779 777 775 773 769 765 762 762
867 860 864 867 858 846 837 836 841 844 839 833 835 839 840 840 842 841 839 839 839 838 838 839 837 836 834 832 833 834 833 830 829 828 827 824 822 822 822 821 820 819 818 817 816 815 814 813 812 811 810 809 809 809 808 808 808 807 807 806 806 805 804 804 803 802 801 800 798 796 794 792 790 787 785 783 781 778 776 774 772 770 768 765 762 761